This demonstration page uses our WeatherBlox Daily Observations layout. Learn more.

Left ArrowRight Arrow

36.19886, -115.1175

Hourly Observations for August 19, 2015

Temp ( °F °C ) Dew Point ( °F °C ) Humidity (%) Winds ( mph kmh ) Pressure ( in mb ) Visibility ( mi km ) Precip ( " mm )
12:53 am 00:53 Clear 92 33.3 38 3.3 15 15 ENE 6 9 29.69 1005 10 16 0.00 0.00
1:53 am 01:53 Clear 87 30.6 39 3.9 18 18 N 6 9 29.70 1006 10 16 0.00 0.00
2:53 am 02:53 Clear 86 30 40 4.4 20 20 NNE 10 17 29.71 1006 10 16 0.00 0.00
3:53 am 03:53 Clear 86 30 39 3.9 19 19 NNE 6 9 29.72 1007 10 16 0.00 0.00
4:53 am 04:53 Clear 83 28.3 38 3.3 20 20 NNW 7 11 29.74 1007 10 16 0.00 0.00
5:53 am 05:53 Clear 82 27.8 36 2.2 19 19 WSW 5 7 29.76 1008 10 16 0.00 0.00
6:53 am 06:53 Sunny 84 28.9 31 -0.6 15 15 Calm 29.79 1009 10 16 0.00 0.00
7:53 am 07:53 Sunny 87 30.6 34 1.1 15 15 Calm 29.80 1009 10 16 0.00 0.00
8:53 am 08:53 Sunny 91 32.8 32 0 12 12 Calm 29.80 1009 10 16 0.00 0.00
9:53 am 09:53 Sunny 95 35 28 -2.2 9 9 ESE 7 11 29.80 1009 10 16 0.00 0.00
10:53 am 10:53 Sunny 98 36.7 26 -3.3 8 8 VRB 7 11 29.80 1009 10 16 0.00 0.00
11:53 am 11:53 Sunny 101 38.3 29 -1.7 8 8 ESE 6 9 29.78 1009 10 16 0.00 0.00
12:53 pm 12:53 Sunny 102 38.9 31 -0.6 8 8 undefined N/A 29.77 1008 10 16 0.00 0.00
1:53 pm 13:53 Sunny 103 39.4 32 0 8 8 SSW 7 11 29.75 1008 10 16 0.00 0.00
2:53 pm 14:53 Sunny 104 40 32 0 8 8 SE 3 6 29.73 1007 10 16 0.00 0.00
3:53 pm 15:53 Sunny 105 40.6 29 -1.7 7 7 SE 6 9 29.70 1006 10 16 0.00 0.00
4:53 pm 16:53 Sunny 106 41.1 31 -0.6 7 7 ESE 8 13 29.68 1005 10 16 0.00 0.00
5:53 pm 17:53 Sunny 106 41.1 33 0.6 8 8 E 6 9 29.66 1005 10 16 0.00 0.00
6:53 pm 18:53 Sunny 103 39.4 37 2.8 10 10 SE 8 13 29.66 1004 10 16 0.00 0.00
7:53 pm 19:53 Clear 100 37.8 40 4.4 13 13 ESE 9 15 29.66 1005 10 16 0.00 0.00
8:53 pm 20:53 Clear 100 37.8 38 3.3 12 12 WSW 6 9 29.67 1005 10 16 0.00 0.00
9:53 pm 21:53 Clear 98 36.7 33 0.6 10 10 W 9 15 29.67 1005 10 16 0.00 0.00
10:53 pm 22:53 Clear 95 35 34 1.1 12 12 SW 6 9 29.67 1005 10 16 0.00 0.00
11:53 pm 23:53 Clear 92 33.3 35 1.7 13 13 SE 3 6 29.68 1005 10 16 0.00 0.00

Powered by AerisWeather